SL-12 DEB, 41806

Orbit data source: Space-Track

SL-12 DEB, 41806 is space debris in HEO originally from a launch on Mon, 25 Dec 2006 UTC launched from the Tyuratam Missile And Space Complex (TTMTR). Debris objects in space refer to the collection of defunct objects orbiting the Earth. Examples of debris include non-operational satellites, rocket bodies, and fragments generated from explosions, collisions, or faulty payload assembly.

Loading next visibility...
Identifier
41806, 2006-062L
Orbit
HEO
Country
Flag of CISCIS
Related business
Manufacturer
RKKE
Mission
Spacecraft
Bus & Motor
Unknown
Mass
Unknown
Launch date (UTC)
2006-12-25 (19 years ago)
Launch vehicle
Unknown
Launch site
Tyuratam Missile And Space Complex (TTMTR)
Object type
Payload
Rocket body
Debris
Shape & HBR
Unknown shape, 0.2 m
Radar Cross Section
Medium (>0.1 m² and <1 m²)

Expand to show TLE details & history
Last TLE update: 16 hours ago

TLE from 16 hours ago
0 SL-12 DEB
1 41806U 06062L   26124.76386833 -.00000082  00000-0 -70290-3 0  9995
2 41806  64.5287  47.1626 5649095 317.0145  10.6295  4.14258663147293
Epoch: 2026-05-04T18:19Z
TLE epoch observation values (Epoch: 2026-05-04T18:19:58.223Z)
Latitude
0.00007°
Longitude
-90.4881°
Altitude
1,518.321 km
Speed
8.754 km/s
True Right ascension
03h 08m 36s
True Declination
0° 00' 00"
Sunlit
Object was in daylight at epoch
Visualization orbit readout
Latitude
Unknown
Longitude
Unknown
Altitude
Unknown
Speed
Unknown
Apparent Right ascension
Unknown
Apparent Declination
Unknown
Sunlit
N/A
Visualization observer readout
Local Sidereal Time
18:11:12
Azimuth
Unknown
Elevation
Unknown
Doppler factor
Unknown
Orbital elements
Apogee altitude
19,247.933 km
Perigee altitude
746.658 km
Semi-major axis
16,375.433 km
Eccentricity
0.56491
Inclination
64.5287°
RAAN
47.1626°
Arg. of periapsis
317.0145°
True anomaly
43.18297°
Mean anomaly
10.6295°
Eccentric anomaly
23.57423°
Mean motion
1.03575 °/min
Orbital period
347.57 mins
BSTAR
-0.0007029
Loading maneuver chart data...
Computing Atmospheric mass density...
Loading historical data...
Loading historical data...
Loading historical data...
Loading historical data...
Loading historical data...
Loading historical data...
Loading historical data...

Documentation

Showing up to 5 results
|